Knox County Regional Airport


Codes: KRKD/RKD
Name: Knox County Regional Airport
City: Rockland
Country: United States
Elevation: 56 ft.

Photos at Knox County Regional Airport


   Photos courtesy of SpottingLog. You can add your own sightings and photos by signing up for a free trial today.



No photos found.

Weather at Knox County Regional Airport


Time (UTC)DescriptionTempratureWindCloud coverageVisibilityPressureHumidity
21-Jun-2024 12:00Overcast Clouds20°C9 mph, N100%10000m1022hPa73%
21-Jun-2024 15:00Overcast Clouds19°C7 mph, NE98%10000m1022hPa71%
21-Jun-2024 18:00Overcast Clouds18°C7 mph, SE97%10000m1022hPa71%
21-Jun-2024 21:00Overcast Clouds18°C4 mph, S100%10000m1021hPa67%
22-Jun-2024 00:00Overcast Clouds17°C7 mph, SW100%10000m1021hPa69%
22-Jun-2024 03:00Overcast Clouds16°C4 mph, W92%10000m1020hPa68%
22-Jun-2024 06:00Overcast Clouds16°C0 mph, N96%10000m1020hPa68%
22-Jun-2024 09:00Overcast Clouds15°C7 mph, SE100%10000m1019hPa75%
22-Jun-2024 12:00Light Rain15°C4 mph, E100%10000m1019hPa87%
22-Jun-2024 15:00Light Rain15°C7 mph, E100%10000m1018hPa97%
22-Jun-2024 18:00Light Rain14°C13 mph, NE100%10000m1017hPa97%
22-Jun-2024 21:00Light Rain14°C13 mph, NE100%10000m1015hPa95%
23-Jun-2024 00:00Light Rain13°C16 mph, E100%143m1012hPa99%
23-Jun-2024 03:00Moderate Rain14°C11 mph, N100%0m1012hPa99%
23-Jun-2024 06:00Light Rain14°C7 mph, N100%10000m1011hPa98%
23-Jun-2024 09:00Overcast Clouds14°C9 mph, NE100%5301m1010hPa99%
23-Jun-2024 12:00Overcast Clouds14°C4 mph, E100%10000m1011hPa98%
23-Jun-2024 15:00Light Rain15°C7 mph, SE100%477m1009hPa98%
23-Jun-2024 18:00Light Rain14°C7 mph, N100%0m1007hPa99%
23-Jun-2024 21:00Light Rain15°C7 mph, E100%2826m1004hPa99%
24-Jun-2024 00:00Moderate Rain15°C7 mph, SE100%276m1003hPa100%
24-Jun-2024 03:00Moderate Rain15°C9 mph, N100%298m1003hPa99%
24-Jun-2024 06:00Light Rain14°C13 mph, NE100%366m1003hPa99%
24-Jun-2024 09:00Light Rain14°C11 mph, NE100%10000m1003hPa99%
24-Jun-2024 12:00Light Rain14°C13 mph, NE100%10000m1005hPa97%
24-Jun-2024 15:00Light Rain14°C13 mph, NE97%10000m1005hPa96%
24-Jun-2024 18:00Light Rain14°C11 mph, NE98%10000m1005hPa95%
24-Jun-2024 21:00Light Rain14°C9 mph, E100%4079m1004hPa96%
25-Jun-2024 00:00Light Rain15°C7 mph, NW100%10000m1004hPa98%
25-Jun-2024 03:00Light Rain15°C7 mph, NW100%10000m1004hPa98%
25-Jun-2024 06:00Light Rain15°C9 mph, NW100%10000m1003hPa97%
25-Jun-2024 09:00Light Rain15°C16 mph, NW100%10000m1005hPa92%
25-Jun-2024 12:00Light Rain15°C13 mph, NW100%10000m1007hPa82%
25-Jun-2024 15:00Broken Clouds19°C16 mph, N67%10000m1008hPa58%
25-Jun-2024 18:00Broken Clouds20°C7 mph, NE55%10000m1008hPa59%
25-Jun-2024 21:00Broken Clouds19°C11 mph, SW64%10000m1009hPa68%
26-Jun-2024 00:00Scattered Clouds16°C9 mph, SW38%10000m1010hPa83%
26-Jun-2024 03:00Broken Clouds16°C9 mph, SW74%10000m1010hPa86%
26-Jun-2024 06:00Broken Clouds15°C7 mph, SW59%10000m1010hPa94%
26-Jun-2024 09:00Broken Clouds15°C9 mph, SW63%10000m1009hPa94%